Regional Weather Roundup
Issued by NWS New Orleans/Baton Rouge, LA

Home | Current Version | Previous Version | Text Only | Print | Product List | Glossary On
Versions: 1 2 3 4 5 6 7 8 9 10 11 12 13 14 15 16 17 18 19 20 21 22 23 24 25 26 27 28 29 30 31 32 33 34 35 36 37 38 39 40 41 42 43 44 45 46 47 48 49 50
000
ASUS44 KLIX 311612
RWRLIX
NEW ORLEANS REGIONAL WEATHER ROUNDUP
NATIONAL WEATHER SERVICE NEW ORLEANS LA
1100 AM CDT FRI JUL 31 2015

NOTE: "FAIR" INDICATES FEW OR NO CLOUDS BELOW 12,000 FEET WITH NO
      SIGNIFICANT WEATHER AND/OR OBSTRUCTIONS TO VISIBILITY.
      SKY/WX - SKY CONDITION AND SIGNIFICANT WEATHER.
      TMP - AIR TEMPERATURE.     DP    - DEWPOINT TEMPERATURE.
      RH  - RELATIVE HUMIDITY.   PRES  - PRESSURE.
      HI  - HEAT INDEX.          WCI   - WIND CHILL INDEX.

*  THESE STATIONS ARE NOT NWS OR FAA STATIONS AND ARE NOT UNDER
   NWS QUALITY CONTROL.

LAZ038-040-048-061>063-065>067-069-311700-
SOUTHEAST LOUISIANA

CITY           SKY/WX    TMP DP  RH WIND       PRES   REMARKS
N.O. AUDUBON     N/A     91  76  60 MISG        N/A  HX 102
N.O. INTL ARPT PTSUNNY   86  71  60 N7        29.96R
N.O. LAKEFRONT MOSUNNY   86  71  60 N6        29.96S
N.O. DOWNTOWN*   N/A     86  72  62 NE5       29.96S
RESERVE*         N/A     88  72  58 N5        29.97S
SLIDELL        SUNNY     86  74  67 N8        29.95S
BATON ROUGE    SUNNY     86  70  58 N7        29.99R
BOOTHVILLE     SUNNY     87  77  72 NE8       29.95R HX  99
BELLE CHASSE   PTSUNNY   87  73  62 N5        29.95R
BOGALUSA*        N/A     85  70  61 N7        29.99S
GALLIANO*      NOT AVBL
NEW ROADS*       N/A    N/A N/A N/A N8        30.01R
GONZALES*        N/A     86  71  61 N5        29.96F
HAMMOND*       SUNNY     88  68  51 N3        29.99S
HOUMA*         SUNNY     88  77  70 N5        29.95S HX 100
PORT FOURCHON*   N/A     86  75  70 NE10      29.95S HX  95

$$

MSZ070-080>082-311700-
SOUTHERN MISSISSIPPI

CITY           SKY/WX    TMP DP  RH WIND       PRES   REMARKS
MCCOMB         SUNNY     85  69  58 N3        30.01R
GULFPORT       MOSUNNY   86  72  62 N8        29.94S
BILOXI         SUNNY     85  74  68 NE7       29.94S
PASCAGOULA     SUNNY     86  74  67 NE8       29.94S

$$

COASTAL OBSERVATIONS
LAKE AND NEARSHORE STATIONS

STATION/POSITION TIME  TEMP    WIND        PRES    WAVE
                       AIR SEA DIR/SP/G            HT/PER
                 (UTC) (F)     (DEG/KT/KT) (MB)    (FT/S)
PASCAGOULA       1500   85      30/  6/  9 1013.2
WAVELAND YACHT   1500   82 86   20/  8/  9 1014.4
GRAND ISLE       1500   85 89   40/  7/ 10 1013.9
SOUTHWEST PASS   1500   89 87   40/  9/ 12 1013.8
NEW CANAL        1500   82 87   40/  9/ 11 1013.5
SHELL BEACH      1500   82 87   20/ 11/ 13 1013.3

OFFSHORE STATIONS

STATION/POSITION TIME  TEMP    WIND        PRES    WAVE
                       AIR SEA DIR/SP/G            HT/PER
                 (UTC) (F)     (DEG/KT/KT) (MB)    (FT/S)
64 S DAUPHIN ISL 1550   85 88   40/  6/  8 1013.3    2/ 4

$$



USA.gov is the U.S. government's official web portal to all federal, state and local government web resources and services.